"read_dt","SO2 (ppb)","flags","PMT voltage (V)","lamp voltage (V)","lamp intensity (Hz)","internal temp (C)","react chamber temp (C)","sample flow (l/min)","pres (mmHg)","SO2 bkg (ppb)","SO2 coefficient"
2014-02-05 00:00:00,8106E-3,5C000005,-0725,0973,10747,000.6,017.1,0.432,732.7,01.19,0.508
2014-02-05 00:01:00,7804E-3,5C000005,-0725,0972,10728,000.8,017.7,0.433,732.7,01.19,0.508
2014-02-05 00:02:00,7392E-3,5C000005,-0725,0972,10671,001.0,018.4,0.432,732.8,01.19,0.508
2014-02-05 00:03:00,7405E-3,5C000005,-0725,0972,10777,001.2,019.0,0.434,732.7,01.19,0.508
2014-02-05 00:04:00,7149E-3,5C000005,-0725,0970,10838,001.4,019.5,0.432,732.7,01.19,0.508
2014-02-05 00:05:00,6728E-3,5C000005,-0725,0970,10929,001.6,020.1,0.432,732.7,01.19,0.508
2014-02-05 00:06:00,6614E-3,5C000005,-0725,0969,10823,001.8,020.6,0.432,732.7,01.19,0.508
2014-02-05 00:07:00,6518E-3,5C000005,-0725,0968,10932,002.0,021.2,0.432,732.7,01.19,0.508
2014-02-05 00:08:00,6221E-3,5C000005,-0725,0968,10997,002.2,021.7,0.431,732.8,01.19,0.508
2014-02-05 00:09:00,6138E-3,5C000005,-0725,0966,10892,002.4,022.2,0.429,733.2,01.19,0.508
2014-02-05 00:10:00,6067E-3,5C000005,-0725,0966,10909,002.6,022.7,0.431,732.8,01.19,0.508
2014-02-05 00:11:00,6178E-3,5C000005,-0725,0966,10986,002.8,023.2,0.431,732.8,01.19,0.508
2014-02-05 00:12:00,5814E-3,5C000005,-0725,0965,10942,003.0,023.7,0.431,732.8,01.19,0.508
2014-02-05 00:13:00,5559E-3,5C000005,-0725,0964,10946,003.1,024.2,0.433,732.8,01.19,0.508
2014-02-05 00:14:00,5344E-3,5C000005,-0725,0963,10734,003.4,024.6,0.407,740.5,01.18,0.508
2014-02-05 00:15:00,5273E-3,5C000005,-0725,0962,10927,003.6,025.1,0.420,735.3,01.18,0.508
2014-02-05 00:16:00,5288E-3,5C000005,-0725,0962,11021,003.8,025.5,0.419,735.0,01.18,0.508
2014-02-05 00:17:00,5109E-3,5C000005,-0725,0962,10940,004.0,026.0,0.420,735.0,01.18,0.508
2014-02-05 00:18:00,4768E-3,5C000005,-0725,0960,10911,004.1,026.4,0.418,735.0,01.18,0.508
2014-02-05 00:19:00,4752E-3,5C000005,-0725,0960,10946,004.3,026.8,0.418,735.4,01.18,0.508
2014-02-05 00:20:00,4636E-3,5C000005,-0725,0960,11033,004.5,027.2,0.415,735.5,01.18,0.508
2014-02-05 00:21:00,4237E-3,5C000005,-0725,0960,10998,004.7,027.6,0.407,736.7,01.18,0.508
2014-02-05 00:22:00,4176E-3,5C000005,-0725,0959,11015,004.9,028.0,0.407,736.1,01.18,0.508
2014-02-05 00:23:00,3948E-3,5C000005,-0725,0959,10949,005.1,028.4,0.406,736.0,01.18,0.508
2014-02-05 00:24:00,4005E-3,5C000005,-0725,0959,10867,005.3,028.8,0.408,736.0,01.18,0.508
2014-02-05 00:25:00,3814E-3,5C000005,-0725,0960,11073,005.5,029.2,0.407,736.1,01.18,0.508
2014-02-05 00:26:00,3594E-3,5C000005,-0725,0960,11025,005.7,029.6,0.405,736.1,01.18,0.508
2014-02-05 00:27:00,3588E-3,5C000005,-0725,0961,10831,005.8,029.9,0.406,735.8,01.18,0.508
2014-02-05 00:28:00,3478E-3,5C000005,-0725,0960,10974,006.0,030.3,0.408,735.6,01.18,0.508
2014-02-05 00:29:00,3677E-3,5C000005,-0725,0960,11032,006.1,030.7,0.407,735.5,01.18,0.508
2014-02-05 00:30:00,3498E-3,5C000005,-0725,0960,11043,006.3,031.0,0.408,735.5,01.18,0.508
2014-02-05 00:31:00,3361E-3,5C000005,-0725,0960,10873,006.5,031.3,0.408,735.5,01.18,0.508
2014-02-05 00:32:00,3320E-3,5C000005,-0725,0960,10935,006.7,031.7,0.407,735.5,01.18,0.508
2014-02-05 00:33:00,3273E-3,5C000005,-0725,0960,11044,006.8,032.0,0.408,735.5,01.18,0.508
2014-02-05 00:34:00,3354E-3,5C000005,-0725,0961,11011,007.0,032.4,0.406,735.5,01.18,0.508
2014-02-05 00:35:00,3378E-3,5C000005,-0725,0961,10974,007.2,032.7,0.407,735.5,01.18,0.508
2014-02-05 00:36:00,3267E-3,5C000005,-0725,0962,10833,007.3,033.0,0.407,735.5,01.18,0.508
2014-02-05 00:37:00,3290E-3,5C000005,-0725,0961,10762,007.5,033.3,0.407,735.5,01.18,0.508
2014-02-05 00:38:00,3194E-3,5C000005,-0725,0962,10893,007.6,033.7,0.580,735.9,01.18,0.508
2014-02-05 00:39:00,3329E-3,5C000005,-0725,0961,10853,007.8,033.9,0.507,736.3,01.18,0.508
2014-02-05 00:40:00,3121E-3,5C000005,-0725,0962,10990,007.9,034.3,0.462,736.1,01.18,0.508
2014-02-05 00:41:00,3228E-3,5C000005,-0725,0961,10872,008.1,034.6,0.409,736.0,01.18,0.508
2014-02-05 00:42:00,3298E-3,5C000005,-0725,0962,11038,008.3,034.9,0.369,735.9,01.18,0.508
2014-02-05 00:43:00,3239E-3,5C000005,-0725,0962,10944,008.4,035.2,0.362,735.8,01.18,0.508
2014-02-05 00:44:00,3000E-3,5C000005,-0725,0962,10982,008.5,035.4,0.350,735.8,01.18,0.508
2014-02-05 00:45:00,3078E-3,5C000005,-0725,0962,11031,008.7,035.8,0.341,735.8,01.18,0.508
2014-02-05 00:46:00,3149E-3,5C000005,-0725,0961,10903,008.8,036.0,0.308,743.8,01.18,0.508
2014-02-05 00:47:00,3177E-3,5C000005,-0725,0962,10951,009.0,036.3,0.403,736.7,01.18,0.508
2014-02-05 00:48:00,3234E-3,5C000005,-0725,0962,10790,009.1,036.6,0.403,736.7,01.18,0.508
2014-02-05 00:49:00,3060E-3,5C000005,-0725,0964,10969,009.2,036.8,0.401,736.8,01.18,0.508
2014-02-05 00:50:00,2916E-3,5C000005,-0725,0963,10888,009.4,037.1,0.402,736.6,01.18,0.508
2014-02-05 00:51:00,2988E-3,5C000005,-0725,0963,10978,009.5,037.3,0.401,736.6,01.18,0.508
2014-02-05 00:52:00,2961E-3,5C000005,-0725,0964,10920,009.6,037.6,0.398,736.6,01.18,0.508
2014-02-05 00:53:00,2839E-3,5C000005,-0725,0964,10900,009.8,037.9,0.400,736.7,01.18,0.508
2014-02-05 00:54:00,3061E-3,5C000005,-0725,0963,10910,009.9,038.1,0.370,737.0,01.18,0.508
2014-02-05 00:55:00,3046E-3,5C000005,-0725,0964,10927,010.0,038.4,0.402,736.9,01.18,0.508
2014-02-05 00:56:00,3113E-3,5C000005,-0725,0963,10811,010.1,038.6,0.399,737.0,01.18,0.508
2014-02-05 00:57:00,3018E-3,5C000005,-0725,0963,10841,010.2,038.9,0.398,737.0,01.18,0.508
2014-02-05 00:58:00,2898E-3,5C000005,-0725,0964,10956,010.4,039.1,0.401,736.7,01.18,0.508
2014-02-05 00:59:00,3167E-3,5C000005,-0725,0964,10961,010.5,039.3,0.400,736.6,01.18,0.508
2014-02-05 01:00:00,2822E-3,5C000005,-0725,0963,10838,010.6,039.6,0.363,736.5,01.18,0.508
2014-02-05 01:01:00,2817E-3,5C000005,-0725,0964,10810,010.7,039.8,0.356,736.4,01.18,0.508
2014-02-05 01:02:00,2841E-3,5C000005,-0725,0965,10936,010.8,040.0,0.344,736.6,01.18,0.508
2014-02-05 01:03:00,2877E-3,5C000005,-0725,0964,10965,010.8,040.2,0.326,736.4,01.18,0.508
2014-02-05 01:04:00,2894E-3,5C000005,-0725,0964,10851,011.0,040.4,0.358,736.4,01.18,0.508
2014-02-05 01:05:00,2722E-3,5C000005,-0725,0966,10838,011.1,040.7,0.319,736.3,01.18,0.508
2014-02-05 01:06:00,2639E-3,5C000005,-0725,0965,10749,011.1,040.8,0.287,736.0,01.18,0.508
2014-02-05 01:07:00,2719E-3,5C000005,-0725,0964,10929,011.3,041.0,0.376,735.9,01.18,0.508
2014-02-05 01:08:00,2746E-3,5C000005,-0725,0965,10938,011.4,041.3,0.398,735.9,01.18,0.508
2014-02-05 01:09:00,2738E-3,5C000005,-0725,0966,10913,011.5,041.5,0.386,738.9,01.18,0.508
2014-02-05 01:10:00,2635E-3,5C000005,-0725,0965,10876,011.6,041.7,0.392,737.3,01.18,0.508
2014-02-05 01:11:00,2601E-3,5C000005,-0725,0965,10774,011.7,041.8,0.391,737.3,01.18,0.508
2014-02-05 01:12:00,2873E-3,5C000005,-0725,0966,10866,011.8,042.1,0.392,737.0,01.18,0.508
2014-02-05 01:13:00,2674E-3,5C000005,-0725,0966,10924,011.8,042.2,0.397,736.5,01.18,0.508
2014-02-05 01:14:00,2755E-3,5C000005,-0725,0965,10944,011.9,042.4,0.393,736.1,01.18,0.508
2014-02-05 01:15:00,2513E-3,5C000005,-0725,0964,10840,012.0,042.6,0.411,741.9,01.18,0.508
2014-02-05 01:16:00,2620E-3,5C000005,-0725,0965,10903,012.1,042.8,0.459,737.8,01.18,0.508
2014-02-05 01:17:00,2700E-3,5C000001,-0725,0966,10998,012.2,043.0,0.377,737.7,01.18,0.508
2014-02-05 01:18:00,2768E-3,5C000001,-0725,0965,10784,012.2,043.2,0.303,737.5,01.18,0.508
2014-02-05 01:19:00,2613E-3,5C000001,-0725,0965,10796,012.3,043.3,0.337,752.0,01.17,0.508
2014-02-05 01:20:00,2731E-3,5C000001,-0725,0966,10953,012.4,043.5,0.344,743.9,01.18,0.508
2014-02-05 01:21:00,2518E-3,5C000001,-0725,0965,10860,012.5,043.6,0.345,743.2,01.18,0.508
2014-02-05 01:22:00,2799E-3,5C000001,-0725,0966,10929,012.5,043.8,0.333,743.3,01.18,0.508
2014-02-05 01:23:00,2579E-3,5C000001,-0725,0966,10976,012.6,044.0,0.334,744.6,01.17,0.508
2014-02-05 01:24:00,2578E-3,5C000001,-0725,0966,10788,012.7,044.1,0.333,744.4,01.18,0.508
2014-02-05 01:25:00,2709E-3,5C000001,-0725,0966,10930,012.8,044.3,0.337,744.1,01.18,0.508
2014-02-05 01:26:00,2638E-3,5C000001,-0725,0967,10734,012.8,044.5,0.339,744.0,01.18,0.508
2014-02-05 01:27:00,2599E-3,5C000001,-0725,0966,10906,012.9,044.6,0.341,743.9,01.18,0.508
2014-02-05 01:28:00,2613E-3,5C000001,-0725,0967,10673,013.0,044.8,0.340,743.7,01.18,0.508
2014-02-05 01:29:00,2635E-3,5C000001,-0725,0966,10927,013.1,044.9,0.339,743.7,01.18,0.508
2014-02-05 01:30:00,2557E-3,5C000001,-0725,0967,10929,013.1,045.0,0.339,743.6,01.18,0.508
2014-02-05 01:31:00,2504E-3,5C000001,-0725,0967,10659,013.2,045.0,0.336,743.5,01.18,0.508
2014-02-05 01:32:00,2505E-3,5C000001,-0725,0967,10834,013.3,045.0,0.338,743.7,01.18,0.508
2014-02-05 01:33:00,2512E-3,5C000001,-0725,0967,10864,013.3,044.9,0.338,743.7,01.18,0.508
2014-02-05 01:34:00,2438E-3,5C000001,-0725,0967,10858,013.4,045.0,0.339,743.5,01.18,0.508
2014-02-05 01:35:00,2521E-3,5C000001,-0725,0966,10738,013.5,044.9,0.337,743.9,01.18,0.508
2014-02-05 01:36:00,2414E-3,5C000001,-0725,0966,10909,013.5,044.9,0.338,743.9,01.18,0.508
2014-02-05 01:37:00,2408E-3,5C000001,-0725,0966,10866,013.6,045.0,0.335,743.9,01.18,0.508
2014-02-05 01:38:00,2215E-3,5C000001,-0725,0967,10853,013.6,045.0,0.334,743.8,01.18,0.508
2014-02-05 01:39:00,2294E-3,5C000001,-0725,0966,10939,013.6,044.9,0.335,743.9,01.18,0.508
2014-02-05 01:40:00,2353E-3,5C000001,-0725,0966,10688,013.7,045.0,0.338,743.9,01.18,0.508
2014-02-05 01:41:00,2395E-3,5C000001,-0725,0967,10896,013.7,045.0,0.367,744.4,01.18,0.508
2014-02-05 01:42:00,2355E-3,5C000001,-0725,0966,10912,013.8,045.0,0.286,744.2,01.18,0.508
2014-02-05 01:43:00,2392E-3,5C000001,-0725,0966,10900,013.8,045.0,0.378,745.9,01.17,0.508
2014-02-05 01:44:00,2486E-3,5C000001,-0725,0966,10806,013.8,044.9,0.385,745.9,01.17,0.508
2014-02-05 01:45:00,2370E-3,5C000001,-0725,0966,10983,013.9,044.9,0.370,745.8,01.17,0.508
2014-02-05 01:46:00,2369E-3,5C000001,-0725,0967,10775,014.0,045.0,0.371,745.7,01.17,0.508
2014-02-05 01:47:00,2444E-3,5C000001,-0725,0966,10791,014.0,045.0,0.352,745.8,01.17,0.508
2014-02-05 01:48:00,2365E-3,5C000001,-0725,0966,10829,014.0,044.9,0.327,745.6,01.17,0.508
2014-02-05 01:49:00,2225E-3,5C000001,-0725,0967,10744,014.1,044.9,0.338,745.6,01.17,0.508
2014-02-05 01:50:00,2374E-3,5C000001,-0725,0965,10804,014.2,045.0,0.426,745.5,01.17,0.508
2014-02-05 01:51:00,2499E-3,5C000001,-0725,0966,10825,014.2,044.9,0.391,745.5,01.17,0.508
2014-02-05 01:52:00,2561E-3,5C000001,-0725,0967,10782,014.3,044.9,0.421,745.9,01.17,0.508
2014-02-05 01:53:00,2417E-3,5C000001,-0725,0967,10775,014.3,044.9,0.383,745.8,01.17,0.508
2014-02-05 01:54:00,2537E-3,5C000001,-0725,0966,10812,014.4,044.9,0.362,745.9,01.17,0.508
2014-02-05 01:55:00,2454E-3,5C000001,-0725,0967,10782,014.4,044.9,0.312,745.9,01.17,0.508
2014-02-05 01:56:00,2297E-3,5C000001,-0725,0966,10819,014.5,044.9,0.330,746.0,01.17,0.508
2014-02-05 01:57:00,2453E-3,5C000001,-0725,0967,10794,014.5,044.9,0.463,746.0,01.17,0.508
2014-02-05 01:58:00,2391E-3,5C000001,-0725,0966,10842,014.6,045.0,0.419,745.7,01.17,0.508
2014-02-05 01:59:00,2242E-3,5C000001,-0725,0966,10754,014.7,045.0,0.452,746.3,01.17,0.508
2014-02-05 02:00:00,2531E-3,5C000001,-0725,0967,10989,014.7,045.0,0.395,746.0,01.17,0.508
2014-02-05 02:01:00,2405E-3,5C000001,-0725,0966,10588,014.8,044.9,0.396,746.1,01.17,0.508
2014-02-05 02:02:00,2240E-3,5C000001,-0725,0968,10891,014.8,045.0,0.398,746.3,01.17,0.508
2014-02-05 02:03:00,2416E-3,5C000001,-0725,0966,10751,014.9,045.0,0.390,746.7,01.17,0.508
2014-02-05 02:04:00,2420E-3,5C000001,-0725,0967,10840,014.9,044.9,0.293,751.3,01.17,0.508
2014-02-05 02:05:00,2312E-3,5C000000,-0725,0967,10867,015.0,044.9,0.293,751.0,01.17,0.508
2014-02-05 02:06:00,2406E-3,5C000000,-0725,0967,10845,015.1,045.0,0.291,750.9,01.17,0.508
2014-02-05 02:07:00,2335E-3,5C000000,-0725,0966,10828,015.1,045.0,0.292,750.8,01.17,0.508
2014-02-05 02:08:00,2349E-3,5C000000,-0725,0967,10892,015.2,044.9,0.291,750.6,01.17,0.508
2014-02-05 02:09:00,2433E-3,5C000000,-0725,0966,10882,015.2,044.9,0.292,750.9,01.17,0.508
2014-02-05 02:10:00,2353E-3,5C000000,-0725,0967,10725,015.3,044.9,0.291,750.8,01.17,0.508
2014-02-05 02:11:00,2292E-3,5C000000,-0725,0966,10752,015.4,045.0,0.291,750.7,01.17,0.508
2014-02-05 02:12:00,2385E-3,5C000000,-0725,0967,10921,015.4,045.0,0.292,750.7,01.17,0.508
2014-02-05 02:13:00,2305E-3,5C000000,-0725,0966,10699,015.4,044.9,0.292,750.6,01.17,0.508
2014-02-05 02:14:00,2393E-3,5C000000,-0725,0966,10786,015.5,045.0,0.292,750.7,01.17,0.508
2014-02-05 02:15:00,2478E-3,5C000000,-0725,0967,10838,015.5,045.0,0.291,750.6,01.17,0.508
2014-02-05 02:16:00,2200E-3,5C000000,-0725,0967,10922,015.6,045.0,0.291,750.6,01.17,0.508
2014-02-05 02:17:00,2346E-3,5C000000,-0725,0967,10921,015.7,045.0,0.290,750.5,01.17,0.508
2014-02-05 02:18:00,2310E-3,5C000000,-0725,0966,10827,015.7,045.0,0.290,750.6,01.17,0.508
2014-02-05 02:19:00,2267E-3,5C000000,-0725,0967,10855,015.8,045.0,0.291,750.3,01.17,0.508
2014-02-05 02:20:00,2170E-3,5C000000,-0725,0967,10744,015.8,045.0,0.290,750.4,01.17,0.508
2014-02-05 02:21:00,2362E-3,5C000000,-0725,0967,10891,015.9,044.9,0.290,750.4,01.17,0.508
2014-02-05 02:22:00,2333E-3,5C000000,-0725,0967,10892,015.9,044.9,0.290,750.4,01.17,0.508
2014-02-05 02:23:00,2356E-3,5C000000,-0725,0967,10880,016.0,045.0,0.289,750.5,01.17,0.508
2014-02-05 02:24:00,2339E-3,5C000000,-0725,0967,10837,016.0,044.9,0.407,750.7,01.17,0.508
2014-02-05 02:25:00,2230E-3,5C000000,-0725,0967,10899,016.1,044.9,0.372,751.3,01.17,0.508
2014-02-05 02:26:00,2233E-3,5C000000,-0725,0968,10838,016.1,045.0,0.412,751.1,01.17,0.508
2014-02-05 02:27:00,2251E-3,5C000000,-0725,0967,10940,016.2,044.9,0.317,750.9,01.17,0.508
2014-02-05 02:28:00,2396E-3,5C000400,-0725,0967,10937,016.2,044.9,0.258,750.9,01.17,0.508
2014-02-05 02:29:00,2295E-3,5C000000,-0725,0966,10831,016.3,045.0,0.546,751.8,01.17,0.508
2014-02-05 02:30:00,2158E-3,5C000000,-0725,0967,10813,016.3,045.0,0.503,751.6,01.17,0.508
2014-02-05 02:31:00,2256E-3,5C000000,-0724,0967,10874,016.4,045.0,0.454,751.5,01.17,0.508
2014-02-05 02:32:00,2237E-3,5C000000,-0725,0967,10834,016.4,045.0,0.401,751.3,01.17,0.508
2014-02-05 02:33:00,2240E-3,5C000000,-0724,0968,10875,016.5,045.0,0.348,751.1,01.17,0.508
2014-02-05 02:34:00,2332E-3,5C000400,-0724,0967,10718,016.5,045.0,0.238,757.6,01.16,0.508
2014-02-05 02:35:00,2143E-3,5C000400,-0724,0967,10956,016.6,045.0,0.238,757.3,01.16,0.508
2014-02-05 02:36:00,2338E-3,5C000400,-0724,0966,10727,016.6,045.0,0.237,757.1,01.16,0.508
2014-02-05 02:37:00,2361E-3,5C000400,-0724,0967,10838,016.7,045.0,0.238,757.1,01.16,0.508
2014-02-05 02:38:00,2381E-3,5C000400,-0724,0966,10825,016.7,044.9,0.235,757.2,01.16,0.508
2014-02-05 02:39:00,2438E-3,5C000400,-0724,0966,10931,016.7,045.0,0.237,757.2,01.16,0.508
2014-02-05 02:40:00,2301E-3,5C000400,-0724,0966,10915,016.8,045.0,0.239,757.0,01.16,0.508
2014-02-05 02:41:00,2361E-3,5C000400,-0724,0966,10806,016.8,045.0,0.240,756.6,01.16,0.508
2014-02-05 02:42:00,2429E-3,5C000400,-0724,0967,10851,016.9,045.0,0.239,756.6,01.16,0.508
2014-02-05 02:43:00,2234E-3,5C000400,-0724,0966,10914,016.9,045.0,0.240,756.6,01.16,0.508
2014-02-05 02:44:00,2287E-3,5C000400,-0724,0967,10955,016.9,044.9,0.240,756.5,01.16,0.508
2014-02-05 02:45:00,2407E-3,5C000400,-0724,0966,10836,017.0,045.0,0.240,756.5,01.16,0.508
2014-02-05 02:46:00,2378E-3,5C000400,-0724,0967,10803,017.0,045.0,0.240,756.5,01.16,0.508
2014-02-05 02:47:00,2402E-3,5C000400,-0724,0966,10953,017.1,045.0,0.240,756.4,01.16,0.508
2014-02-05 02:48:00,2358E-3,5C000400,-0724,0968,10973,017.2,044.9,0.240,756.1,01.16,0.508
2014-02-05 02:49:00,2296E-3,5C000400,-0724,0967,10824,017.2,045.0,0.240,756.4,01.16,0.508
2014-02-05 02:50:00,2253E-3,5C000400,-0724,0967,10786,017.2,044.9,0.238,756.2,01.16,0.508
2014-02-05 02:51:00,2136E-3,5C000400,-0724,0967,10837,017.3,045.0,0.240,756.4,01.16,0.508
2014-02-05 02:52:00,2297E-3,5C000400,-0724,0968,10904,017.3,045.0,0.240,756.3,01.16,0.508
2014-02-05 02:53:00,2213E-3,5C000400,-0724,0967,10854,017.3,045.0,0.240,756.4,01.16,0.508
2014-02-05 02:54:00,2284E-3,5C000400,-0724,0967,10734,017.4,045.0,0.240,756.4,01.16,0.508
2014-02-05 02:55:00,2427E-3,5C000400,-0724,0967,10897,017.4,045.0,0.240,756.4,01.16,0.508
2014-02-05 02:56:00,2228E-3,5C000400,-0724,0967,10740,017.5,045.0,0.240,756.4,01.16,0.508
2014-02-05 02:57:00,2425E-3,5C000400,-0724,0967,10843,017.5,045.0,0.240,756.4,01.16,0.508
2014-02-05 02:58:00,2316E-3,5C000400,-0724,0967,10630,017.6,045.0,0.240,756.4,01.16,0.508
2014-02-05 02:59:00,2124E-3,5C000400,-0724,0967,10813,017.6,045.0,0.240,756.4,01.16,0.508
2014-02-05 03:00:00,2328E-3,5C000400,-0724,0968,10779,017.6,045.0,0.240,756.4,01.16,0.508
2014-02-05 03:01:00,2353E-3,5C000400,-0724,0967,10711,017.7,045.0,0.240,756.4,01.16,0.508
2014-02-05 03:02:00,2273E-3,5C000400,-0724,0967,10849,017.7,045.0,0.000,759.1,01.16,0.508
2014-02-05 03:03:00,2389E-3,5C000400,-0724,0968,10937,017.7,045.0,0.000,759.3,01.16,0.508
2014-02-05 03:04:00,2349E-3,5C000400,-0724,0967,10781,017.8,045.0,0.000,759.3,01.16,0.508
2014-02-05 03:05:00,2390E-3,5C000400,-0724,0966,10889,017.8,045.0,0.000,759.1,01.16,0.508
2014-02-05 03:06:00,2407E-3,5C000400,-0724,0967,10810,017.9,045.0,0.000,759.3,01.16,0.508
2014-02-05 03:07:00,2353E-3,5C000400,-0724,0967,10857,017.9,045.0,0.000,759.2,01.16,0.508
2014-02-05 03:08:00,2504E-3,5C000400,-0724,0967,10830,017.9,045.0,0.000,759.2,01.16,0.508
2014-02-05 03:09:00,2495E-3,5C000400,-0724,0966,10946,018.0,045.0,0.000,759.2,01.16,0.508
2014-02-05 03:10:00,2384E-3,5C000400,-0724,0967,10867,018.0,045.0,0.000,759.2,01.16,0.508
2014-02-05 03:11:00,2498E-3,5C000400,-0724,0967,10863,018.0,045.0,0.000,759.1,01.16,0.508
2014-02-05 03:12:00,2422E-3,5C000400,-0724,0967,10911,018.1,045.0,0.000,759.1,01.16,0.508
2014-02-05 03:13:00,2464E-3,5C000400,-0724,0967,10929,018.1,045.0,0.149,762.2,01.16,0.508
2014-02-05 03:14:00,2496E-3,5C000400,-0724,0967,10761,018.2,045.0,0.000,761.9,01.16,0.508
2014-02-05 03:15:00,2625E-3,5C000400,-0724,0967,10952,018.2,045.0,0.000,761.9,01.16,0.508
2014-02-05 03:16:00,2545E-3,5C000400,-0724,0966,10944,018.2,045.0,0.000,761.8,01.16,0.508
2014-02-05 03:17:00,2576E-3,5C000400,-0724,0966,10970,018.3,045.0,0.000,761.8,01.16,0.508
2014-02-05 03:18:00,2612E-3,5C000400,-0724,0965,10733,018.3,045.0,0.000,761.7,01.16,0.508
2014-02-05 03:19:00,2607E-3,5C000400,-0724,0966,10748,018.3,045.0,0.000,761.6,01.16,0.508
2014-02-05 03:20:00,2532E-3,5C000400,-0724,0966,10957,018.4,045.0,0.000,761.7,01.16,0.508
2014-02-05 03:21:00,2537E-3,5C000400,-0724,0966,10823,018.4,045.0,0.000,761.7,01.16,0.508
2014-02-05 03:22:00,2654E-3,5C000400,-0724,0965,10919,018.4,045.0,0.000,761.6,01.16,0.508
2014-02-05 03:23:00,2590E-3,5C000400,-0724,0965,10834,018.5,045.0,0.000,761.6,01.16,0.508
2014-02-05 03:24:00,2746E-3,5C000400,-0724,0966,10881,018.5,045.0,0.000,761.5,01.16,0.508
2014-02-05 03:25:00,2565E-3,5C000400,-0724,0965,10877,018.5,045.0,0.000,761.5,01.16,0.508
2014-02-05 03:26:00,2642E-3,5C000400,-0724,0965,10950,018.6,045.0,0.000,761.5,01.16,0.508
2014-02-05 03:27:00,2821E-3,5C000400,-0724,0964,10974,018.6,045.0,0.000,761.5,01.16,0.508
2014-02-05 03:28:00,2568E-3,5C000400,-0724,0966,10828,018.6,045.0,0.000,761.5,01.16,0.508
2014-02-05 03:29:00,2680E-3,5C000400,-0724,0965,10886,018.7,045.0,0.000,761.5,01.16,0.508
2014-02-05 03:30:00,2650E-3,5C000400,-0724,0965,10771,018.7,045.0,0.000,761.4,01.16,0.508
2014-02-05 03:31:00,2607E-3,5C000400,-0724,0965,10874,018.7,045.0,0.000,761.5,01.16,0.508
2014-02-05 03:32:00,2742E-3,5C000400,-0724,0966,10865,018.8,045.0,0.000,761.6,01.16,0.508
2014-02-05 03:33:00,2754E-3,5C000400,-0724,0965,11009,018.8,045.0,0.200,761.6,01.16,0.508
2014-02-05 03:34:00,2705E-3,5C000400,-0724,0966,10567,018.8,045.0,0.200,761.7,01.16,0.508
2014-02-05 03:35:00,2425E-3,5C000400,-0724,0966,10739,018.9,045.0,0.200,761.7,01.16,0.508
2014-02-05 03:36:00,2752E-3,5C000400,-0724,0965,10989,018.9,045.0,0.201,761.6,01.16,0.508
2014-02-05 03:37:00,2850E-3,5C000400,-0724,0967,10975,018.9,045.0,0.201,761.6,01.16,0.508
2014-02-05 03:38:00,2806E-3,5C000400,-0724,0966,10942,019.0,045.0,0.200,761.6,01.16,0.508
2014-02-05 03:39:00,2829E-3,5C000400,-0724,0965,10868,019.0,045.0,0.200,761.7,01.16,0.508
2014-02-05 03:40:00,2756E-3,5C000400,-0724,0966,10913,019.0,045.0,0.200,761.7,01.16,0.508
2014-02-05 03:41:00,2633E-3,5C000400,-0724,0965,10999,019.0,045.0,0.200,761.7,01.16,0.508
2014-02-05 03:42:00,2713E-3,5C000400,-0724,0966,10904,019.1,045.0,0.200,761.7,01.16,0.508
2014-02-05 03:43:00,2937E-3,5C000400,-0724,0966,10845,019.1,045.0,0.199,761.6,01.16,0.508
2014-02-05 03:44:00,2693E-3,5C000400,-0724,0965,10877,019.1,045.0,0.199,761.4,01.16,0.508
2014-02-05 03:45:00,2619E-3,5C000400,-0724,0966,10880,019.2,045.0,0.200,761.6,01.16,0.508
2014-02-05 03:46:00,2820E-3,5C000400,-0724,0966,10677,019.2,045.0,0.200,761.7,01.16,0.508
2014-02-05 03:47:00,2684E-3,5C000400,-0724,0966,10922,019.3,045.0,0.199,761.5,01.16,0.508
2014-02-05 03:48:00,2881E-3,5C000400,-0724,0967,10816,019.3,045.0,0.199,761.7,01.16,0.508
2014-02-05 03:49:00,2692E-3,5C000400,-0724,0967,10867,019.3,045.0,0.199,761.8,01.16,0.508
2014-02-05 03:50:00,2647E-3,5C000400,-0724,0966,10848,019.3,045.0,0.199,761.9,01.16,0.508
2014-02-05 03:51:00,2733E-3,5C000400,-0724,0966,10971,019.4,045.0,0.199,761.8,01.16,0.508
2014-02-05 03:52:00,2841E-3,5C000400,-0724,0966,10940,019.4,045.0,0.946,761.8,01.16,0.508
2014-02-05 03:53:00,2897E-3,5C000400,-0724,0966,10844,019.4,045.0,0.210,760.3,01.16,0.508
2014-02-05 03:54:00,2820E-3,5C000400,-0724,0966,10913,019.5,045.0,0.210,760.3,01.16,0.508
2014-02-05 03:55:00,2735E-3,5C000400,-0724,0967,10818,019.5,045.0,0.210,760.3,01.16,0.508
2014-02-05 03:56:00,2865E-3,5C000400,-0724,0967,10866,019.5,045.0,0.210,760.4,01.16,0.508
2014-02-05 03:57:00,2689E-3,5C000400,-0724,0966,10823,019.6,045.0,0.210,760.5,01.16,0.508
2014-02-05 03:58:00,2766E-3,5C000400,-0724,0967,10869,019.6,045.0,0.210,760.5,01.16,0.508
2014-02-05 03:59:00,2703E-3,5C000400,-0724,0967,10923,019.6,045.1,0.210,760.6,01.16,0.508
2014-02-05 04:00:00,2631E-3,5C000400,-0724,0967,10785,019.6,045.0,0.210,760.4,01.16,0.508
2014-02-05 04:01:00,2646E-3,5C000400,-0724,0968,10911,019.7,045.1,0.209,760.6,01.16,0.508
2014-02-05 04:02:00,2700E-3,5C000400,-0724,0968,10937,019.7,045.0,0.209,760.7,01.16,0.508
2014-02-05 04:03:00,2694E-3,5C000400,-0724,0967,10776,019.7,045.0,0.209,760.8,01.16,0.508
2014-02-05 04:04:00,2805E-3,5C000400,-0724,0968,10831,019.8,045.0,0.210,760.6,01.16,0.508
2014-02-05 04:05:00,2742E-3,5C000400,-0724,0967,10912,019.8,045.0,0.209,760.9,01.16,0.508
2014-02-05 04:06:00,2660E-3,5C000400,-0724,0968,10909,019.8,045.0,0.210,760.9,01.16,0.508
2014-02-05 04:07:00,2742E-3,5C000400,-0724,0968,10869,019.8,045.1,0.209,760.9,01.16,0.508
2014-02-05 04:08:00,2663E-3,5C000400,-0724,0968,10933,019.9,045.0,0.209,761.0,01.16,0.508
2014-02-05 04:09:00,2771E-3,5C000400,-0724,0968,10924,019.9,045.0,0.209,761.0,01.16,0.508
2014-02-05 04:10:00,2774E-3,5C000400,-0724,0967,10859,019.9,045.0,0.208,761.1,01.16,0.508
2014-02-05 04:11:00,2617E-3,5C000400,-0724,0968,10861,020.0,045.0,0.208,761.2,01.16,0.508
2014-02-05 04:12:00,2520E-3,5C000400,-0724,0968,10879,020.0,045.0,0.209,761.2,01.16,0.508
2014-02-05 04:13:00,2609E-3,5C000400,-0724,0968,10916,020.0,045.0,0.208,761.3,01.16,0.508
2014-02-05 04:14:00,2648E-3,5C000400,-0724,0969,10724,020.1,045.0,0.208,761.4,01.16,0.508
2014-02-05 04:15:00,2779E-3,5C000400,-0724,0968,10745,020.1,045.0,0.208,761.4,01.16,0.508
2014-02-05 04:16:00,2641E-3,5C000400,-0724,0968,10878,020.1,045.0,0.208,761.3,01.16,0.508
2014-02-05 04:17:00,2452E-3,5C000400,-0724,0969,10903,020.2,045.0,0.208,761.5,01.16,0.508
2014-02-05 04:18:00,2605E-3,5C000400,-0724,0968,10870,020.2,045.1,0.208,761.5,01.16,0.508
2014-02-05 04:19:00,2796E-3,5C000400,-0724,0969,10952,020.2,045.1,0.208,761.6,01.16,0.508
2014-02-05 04:20:00,2731E-3,5C000400,-0724,0968,10908,020.2,045.0,0.208,761.6,01.16,0.508